Flag for Malaysia Weather past 2 weeks in Kuala Lumpur, Malaysia

Now
77 °F

Thunderstorms. Mostly cloudy.


Feels Like: 78 °F
Forecast: 76 / 84 °F
Wind: 1 mph from Northwest

Location: Sultan Abdul Aziz Shah-Subang

Current Time: Sep 20, 2014 at 11:08:50 PM

Latest Report: Sep 20, 2014 at 9:00 PM


Visibility: 6 mi

Pressure: 29.86 "Hg

Humidity: 89%

Dew point: 73 °F

Location of Kuala LumpurLocation

Historic Weather in Kuala Lumpur — Graph

°F

Kuala Lumpur temperature yesterday

Maximum temperature yesterday: 91 °F (at 12:00 PM)
Minimum temperature yesterday: 75 °F (at 5:00 AM)
Average temperature yesterday: 82 °F

Past Weeks' High & Low Weather Summary

 TemperatureHumidityPressure
High95 °F (Sep 18, 4:00 PM)100% (Sep 14, 8:00 AM)29.95 "Hg (Sep 14, 8:00 AM)
Low73 °F (Sep 14, 7:00 AM)44% (Sep 8, 4:00 PM)29.68 "Hg (Sep 16, 4:00 PM)
Average83 °F77%29.83 "Hg
* Reported Sep 5 9:00 PM — Sep 20 9:00 PM, Kuala Lumpur, Weather by CustomWeather, © 2014

Note: Actual official high and low records may vary slightly from our data, if they occured in-between our weather recording intervals... More about our weather records

Advertising

Kuala Lumpur weather history for previous 24 hours

 ConditionsComfort  
Time TempWeatherWind HumidityBarometerVisibility
9:00 PM
Sep 20
77 °FThunderstorms. Mostly cloudy.1 mph89%29.86 "Hg6 mi
8:00 PM77 °FThunderstorms. Mostly cloudy.1 mph89%29.86 "Hg4 mi
7:00 PM77 °FThunderstorms. More clouds than sun.6 mph89%29.83 "Hg5 mi
6:00 PM79 °FThunderstorms. More clouds than sun.7 mph84%29.80 "Hg6 mi
5:00 PM86 °FBroken clouds.9 mph75%29.77 "Hg6 mi
4:00 PM86 °FBroken clouds.9 mph75%29.77 "HgN/A
3:00 PM86 °FBroken clouds.3 mph70%29.80 "HgN/A
2:00 PM86 °FBroken clouds.3 mph70%29.83 "HgN/A
1:00 PM84 °FBroken clouds.3 mph79%29.86 "HgN/A
12:00 PM82 °FPartly sunny.1 mph79%29.89 "Hg6 mi
11:00 AM79 °FBroken clouds.5 mph89%29.92 "Hg6 mi
10:00 AM79 °FMore clouds than sun.7 mph89%29.92 "Hg4 mi
9:00 AM79 °FThunderstorms. More clouds than sun.5 mph94%29.89 "Hg4 mi
8:00 AM77 °FThunderstorms. Broken clouds.1 mph94%29.86 "Hg4 mi
7:00 AM77 °FLight rain. Partly cloudy.1 mph94%29.83 "Hg3 mi
6:00 AM77 °FLight rain. Partly cloudy.No wind89%29.83 "Hg2 mi
5:00 AM77 °FLight rain. Partly cloudy.2 mph94%29.80 "Hg2 mi
4:00 AM77 °FLight rain. Partly cloudy.2 mph94%29.80 "Hg2 mi
3:00 AM79 °FPartly cloudy.2 mph84%29.80 "Hg2 mi
2:00 AM79 °FLight rain. Passing clouds.2 mph94%29.83 "Hg2 mi
1:00 AM79 °FLight rain. Partly cloudy.2 mph94%29.86 "Hg2 mi
12:00 AM81 °FPassing clouds.No wind89%29.86 "Hg2 mi
11:00 PM
Sep 19
81 °FPartly cloudy.2 mph89%29.86 "Hg3 mi
Weather by CustomWeather, © 2014

See weather overviewHow to use our weather pages